TimeCET,TemperatureF,Dew PointF,Humidity,Sea Level PressureIn,VisibilityMPH,Wind Direction,Wind SpeedMPH,Gust SpeedMPH,PrecipitationIn,Events,Conditions,WindDirDegrees,DateUTC
12:45 AM,19.4,15.8,86,29.86,-9999.0,SE,6.9,-,N/A,,Clear,130,2012-12-10 23:45:00
1:00 AM,19,15,79,29.89,7,SE,6.7,,,,Partly Cloudy,130,2012-12-11 00:00:00
1:45 AM,17.6,14.0,86,29.86,-9999.0,East,5.8,-,N/A,,Clear,80,2012-12-11 00:45:00
2:45 AM,15.8,14.0,93,29.86,-9999.0,NNE,3.5,-,N/A,,Clear,30,2012-12-11 01:45:00
3:45 AM,14.0,12.2,93,29.89,-9999.0,North,3.5,-,N/A,,Clear,10,2012-12-11 02:45:00
4:45 AM,15.8,14.0,93,29.86,-9999.0,NE,5.8,-,N/A,,Clear,40,2012-12-11 03:45:00
5:45 AM,15.8,14.0,93,29.89,-9999.0,North,3.5,-,N/A,,Clear,360,2012-12-11 04:45:00
6:15 AM,15.8,14.0,93,29.89,-9999.0,NNW,6.9,-,N/A,,Clear,330,2012-12-11 05:15:00
6:45 AM,17.6,14.0,86,29.89,3.7,NNW,5.8,-,N/A,,Overcast,330,2012-12-11 05:45:00
7:00 AM,17,14,84,29.92,4,NNW,4.5,,,,Partly Cloudy,330,2012-12-11 06:00:00
7:15 AM,15.8,14.0,93,29.89,-9999.0,NNW,4.6,-,N/A,,Overcast,330,2012-12-11 06:15:00
7:45 AM,17.6,14.0,86,29.89,-9999.0,NNW,4.6,-,N/A,,Overcast,330,2012-12-11 06:45:00
8:15 AM,17.6,15.8,93,29.89,-9999.0,NNW,4.6,-,N/A,,Overcast,340,2012-12-11 07:15:00
8:45 AM,19.4,15.8,86,29.89,2.5,NNW,4.6,-,N/A,,Overcast,340,2012-12-11 07:45:00
9:15 AM,21.2,17.6,86,29.89,3.1,North,6.9,-,N/A,,Overcast,350,2012-12-11 08:15:00
9:45 AM,23.0,17.6,80,29.89,3.1,North,6.9,-,N/A,,Overcast,350,2012-12-11 08:45:00
10:15 AM,23.0,19.4,86,29.89,3.7,North,6.9,-,N/A,,Overcast,350,2012-12-11 09:15:00
10:45 AM,24.8,19.4,80,29.89,4.3,North,5.8,-,N/A,,Overcast,360,2012-12-11 09:45:00
11:15 AM,26.6,19.4,74,29.89,5.0,NNW,5.8,-,N/A,,Overcast,340,2012-12-11 10:15:00
11:45 AM,26.6,19.4,74,29.89,5.0,North,3.5,-,N/A,,Overcast,360,2012-12-11 10:45:00
12:15 PM,26.6,19.4,74,29.89,5.0,NW,8.1,-,N/A,,Overcast,320,2012-12-11 11:15:00
12:45 PM,26.6,19.4,74,29.89,5.0,NNW,6.9,-,N/A,,Mostly Cloudy,330,2012-12-11 11:45:00
1:00 PM,27,20,64,29.91,5,NNW,6.7,,,,Partly Cloudy,330,2012-12-11 12:00:00
1:15 PM,26.6,21.2,80,29.89,5.0,NW,6.9,-,N/A,,Mostly Cloudy,320,2012-12-11 12:15:00
1:45 PM,26.6,21.2,80,29.89,5.0,NW,6.9,-,N/A,,Mostly Cloudy,320,2012-12-11 12:45:00
2:45 PM,28.4,21.2,74,29.92,6.2,WNW,5.8,-,N/A,,Mostly Cloudy,300,2012-12-11 13:45:00
3:15 PM,28.4,21.2,74,29.92,6.2,WNW,5.8,-,N/A,,Mostly Cloudy,290,2012-12-11 14:15:00
3:45 PM,28.4,21.2,74,29.92,4.3,West,4.6,-,N/A,,Mostly Cloudy,280,2012-12-11 14:45:00
4:15 PM,28.4,23.0,80,29.92,4.3,WNW,3.5,-,N/A,,Mostly Cloudy,290,2012-12-11 15:15:00
4:45 PM,28.4,21.2,74,29.92,3.7,WNW,4.6,-,N/A,,Overcast,290,2012-12-11 15:45:00
5:15 PM,28.4,23.0,80,29.92,3.7,WNW,4.6,-,N/A,,Overcast,290,2012-12-11 16:15:00
5:45 PM,28.4,21.2,74,29.92,3.7,NNW,6.9,-,N/A,,Overcast,330,2012-12-11 16:45:00
6:15 PM,26.6,21.2,80,29.92,3.7,NW,9.2,-,N/A,,Overcast,320,2012-12-11 17:15:00
6:45 PM,26.6,21.2,80,29.95,3.7,NW,6.9,-,N/A,,Overcast,320,2012-12-11 17:45:00
6:58 PM,26.6,23.0,86,29.95,3.7,NW,5.8,-,N/A,Snow,Light Snow,320,2012-12-11 17:58:00
7:00 PM,27,21,71,29.95,4,NW,6.7,,,,Partly Cloudy,320,2012-12-11 18:00:00
7:15 PM,26.6,23.0,86,29.95,2.5,NW,6.9,-,N/A,Snow,Light Snow,310,2012-12-11 18:15:00
7:45 PM,26.6,23.0,86,29.95,2.5,NW,5.8,-,N/A,,Overcast,320,2012-12-11 18:45:00
8:15 PM,26.6,23.0,86,29.95,1.9,NW,6.9,-,N/A,Snow,Light Snow,310,2012-12-11 19:15:00
8:45 PM,26.6,24.8,93,29.95,1.9,NW,6.9,-,N/A,Snow,Light Snow,320,2012-12-11 19:45:00
9:45 PM,28.4,24.8,86,29.95,2.5,NW,6.9,-,N/A,,Overcast,310,2012-12-11 20:45:00
10:45 PM,28.4,24.8,86,29.95,1.9,NW,10.4,-,N/A,Snow,Light Snow,310,2012-12-11 21:45:00
11:45 PM,28.4,26.6,93,29.98,1.9,WNW,11.5,-,N/A,Snow,Light Snow,300,2012-12-11 22:45:00